TimeCDT,TemperatureF,Dew PointF,Humidity,Sea Level PressureIn,VisibilityMPH,Wind Direction,Wind SpeedMPH,Gust SpeedMPH,PrecipitationIn,Events,Conditions,WindDirDegrees,DateUTC
12:53 AM,73.0,71.1,93,29.91,10.0,Calm,Calm,-,N/A,,Partly Cloudy,0,2013-08-07 05:53:00
1:53 AM,73.0,71.1,93,29.90,10.0,South,3.5,-,N/A,,Clear,180,2013-08-07 06:53:00
2:38 AM,71.6,69.8,94,29.89,10.0,Calm,Calm,-,N/A,,Mostly Cloudy,0,2013-08-07 07:38:00
2:53 AM,72.0,71.1,97,29.86,9.0,SSE,4.6,-,N/A,,Overcast,150,2013-08-07 07:53:00
3:19 AM,73.4,71.6,94,29.87,9.0,South,3.5,-,N/A,,Scattered Clouds,180,2013-08-07 08:19:00
3:53 AM,73.0,72.0,96,29.87,9.0,South,6.9,-,N/A,,Mostly Cloudy,170,2013-08-07 08:53:00
4:14 AM,73.4,71.6,94,29.88,10.0,South,8.1,-,N/A,Thunderstorm,Overcast,170,2013-08-07 09:14:00
4:53 AM,73.9,72.0,93,29.86,10.0,SW,4.6,-,N/A,Thunderstorm,Thunderstorm,230,2013-08-07 09:53:00
5:12 AM,73.4,71.6,94,29.88,1.8,Variable,5.8,16.1,0.10,Rain-Thunderstorm,Heavy Thunderstorms and Rain,0,2013-08-07 10:12:00
5:47 AM,71.6,71.6,100,29.88,3.0,South,6.9,-,0.77,Rain-Thunderstorm,Heavy Thunderstorms and Rain,190,2013-08-07 10:47:00
5:53 AM,73.0,70.0,90,29.86,4.0,SSE,8.1,-,0.81,Rain-Thunderstorm,Thunderstorms and Rain,160,2013-08-07 10:53:00
5:58 AM,73.4,69.8,88,29.87,6.0,South,5.8,-,0.02,Rain-Thunderstorm,Thunderstorms and Rain,180,2013-08-07 10:58:00
6:53 AM,72.0,69.1,91,29.88,10.0,South,8.1,-,0.05,Rain-Thunderstorm,Light Thunderstorms and Rain,190,2013-08-07 11:53:00
7:53 AM,73.0,69.1,87,29.92,9.0,WSW,5.8,-,0.01,Rain-Thunderstorm,Light Thunderstorms and Rain,240,2013-08-07 12:53:00
8:44 AM,71.6,71.6,100,29.95,7.0,Calm,Calm,-,0.02,Rain,Light Rain,0,2013-08-07 13:44:00
8:53 AM,73.0,71.1,93,29.94,9.0,WSW,3.5,-,0.02,Rain-Thunderstorm,Light Thunderstorms and Rain,240,2013-08-07 13:53:00
9:50 AM,73.4,71.6,94,29.93,1.8,SW,6.9,-,0.07,Rain-Thunderstorm,Heavy Thunderstorms and Rain,220,2013-08-07 14:50:00
9:53 AM,73.9,72.0,93,29.93,1.8,SSW,8.1,-,0.09,Rain-Thunderstorm,Light Thunderstorms and Rain,210,2013-08-07 14:53:00
9:57 AM,73.4,71.6,94,29.94,3.0,WSW,9.2,-,0.00,Rain-Thunderstorm,Light Thunderstorms and Rain,240,2013-08-07 14:57:00
10:33 AM,73.4,71.6,94,29.93,8.0,West,13.8,-,0.01,Rain,Light Rain,260,2013-08-07 15:33:00
10:53 AM,73.0,71.1,93,29.90,10.0,SSW,8.1,-,0.02,Rain,Light Rain,210,2013-08-07 15:53:00
11:30 AM,73.4,71.6,94,29.91,10.0,SSW,3.5,-,0.00,,Mostly Cloudy,200,2013-08-07 16:30:00
11:53 AM,73.0,71.1,93,29.89,10.0,ESE,3.5,-,0.00,,Mostly Cloudy,120,2013-08-07 16:53:00
12:09 PM,75.2,71.6,89,29.93,10.0,North,5.8,-,N/A,,Mostly Cloudy,10,2013-08-07 17:09:00
12:24 PM,75.2,71.6,89,29.93,10.0,NNE,4.6,-,N/A,,Mostly Cloudy,30,2013-08-07 17:24:00
12:53 PM,77.0,72.0,84,29.92,10.0,Variable,4.6,-,N/A,,Clear,0,2013-08-07 17:53:00
1:31 PM,78.8,71.6,78,29.93,10.0,Calm,Calm,-,N/A,,Mostly Cloudy,0,2013-08-07 18:31:00
1:45 PM,78.8,71.6,78,29.92,10.0,Calm,Calm,-,N/A,,Mostly Cloudy,0,2013-08-07 18:45:00
1:53 PM,78.1,71.1,79,29.90,10.0,ESE,3.5,-,N/A,,Mostly Cloudy,110,2013-08-07 18:53:00
2:08 PM,80.6,71.6,74,29.90,10.0,Variable,3.5,-,N/A,,Mostly Cloudy,0,2013-08-07 19:08:00
2:16 PM,80.6,71.6,74,29.91,10.0,Calm,Calm,-,N/A,,Mostly Cloudy,0,2013-08-07 19:16:00
2:23 PM,80.6,71.6,74,29.89,10.0,Calm,Calm,-,N/A,,Partly Cloudy,0,2013-08-07 19:23:00
2:40 PM,80.6,71.6,74,29.89,10.0,East,4.6,-,N/A,,Mostly Cloudy,100,2013-08-07 19:40:00
2:49 PM,82.4,73.4,74,29.89,10.0,ENE,5.8,-,N/A,,Scattered Clouds,70,2013-08-07 19:49:00
2:53 PM,82.0,73.0,74,29.87,10.0,East,3.5,-,N/A,,Scattered Clouds,80,2013-08-07 19:53:00
3:53 PM,82.0,72.0,71,29.88,10.0,South,5.8,-,N/A,,Clear,170,2013-08-07 20:53:00
4:53 PM,81.0,72.0,74,29.88,10.0,SW,8.1,-,N/A,,Clear,220,2013-08-07 21:53:00
5:53 PM,81.0,73.0,77,29.87,10.0,SSW,3.5,-,N/A,,Partly Cloudy,210,2013-08-07 22:53:00
6:53 PM,81.0,73.0,77,29.88,10.0,Variable,3.5,-,N/A,,Partly Cloudy,0,2013-08-07 23:53:00
7:53 PM,79.0,73.0,82,29.89,10.0,Calm,Calm,-,N/A,,Clear,0,2013-08-08 00:53:00
8:53 PM,75.0,73.0,94,29.90,10.0,Calm,Calm,-,N/A,,Clear,0,2013-08-08 01:53:00
9:53 PM,73.0,72.0,96,29.91,1.0,Calm,Calm,-,N/A,,Clear,0,2013-08-08 02:53:00
10:07 PM,73.4,71.6,94,29.92,4.0,Calm,Calm,-,N/A,,Clear,0,2013-08-08 03:07:00
10:53 PM,71.1,70.0,96,29.92,5.0,Calm,Calm,-,N/A,,Clear,0,2013-08-08 03:53:00
11:53 PM,71.1,70.0,96,29.92,3.0,Calm,Calm,-,N/A,,Clear,0,2013-08-08 04:53:00